GFSMW_con_mlcape_111.txt.gz
CAPE
0 0 0 0 0 0 0 22 145 180 48 29 3 1 0 0 3 4 3 2 2 3 11 6 1 1 1 0 0 0 0 0 0 0 2 1 0 3 1 6 7 5 3
0 0 0 0 0 0 0 29 79 62 14 1 1 3 8 3 2 2 3 4 1 2 13 3 2 1 1 0 0 0 0 0 0 0 0 0 0 3 4 6 6 3 1
0 0 0 0 0 0 0 20 46 40 4 1 1 0 6 7 9 13 2 2 1 2 3 12 2 2 0 0 0 0 0 0 0 0 0 1 3 0 1 3 1 0 0
0 0 0 0 0 0 0 1 28 8 1 0 0 0 1 5 4 6 4 1 1 2 1 1 1 1 0 0 0 0 0 0 0 0 0 0 0 0 0 0 0 0 0
0 0 0 0 0 0 0 1 14 0 0 0 0 0 6 7 1 3 7 5 1 0 1 0 1 0 0 0 0 0 0 0 0 0 0 0 0 0 0 0 0 0 0
0 0 0 0 0 0 1 3 6 1 0 1 1 2 1 0 1 2 6 1 1 2 2 2 1 0 0 0 0 0 0 0 0 0 0 0 0 0 0 0 0 0 0
0 0 0 0 0 0 1 0 2 0 0 3 4 3 1 1 5 2 1 0 2 2 2 2 2 1 0 0 0 0 0 0 0 0 0 0 0 0 9 55 23 28 6
0 0 0 0 0 0 2 3 1 0 0 4 4 0 3 2 4 0 2 2 3 2 3 2 1 0 0 0 0 0 0 0 0 0 0 0 0 28 54 62 48 26 39
0 0 0 0 0 2 2 3 1 3 1 3 3 0 0 0 2 0 2 2 4 3 3 3 2 0 0 0 0 0 0 0 0 0 0 1 11 35 44 43 57 21 9
0 0 0 0 1 0 1 2 2 2 3 2 0 0 0 1 8 1 1 2 4 2 2 2 0 0 0 0 0 0 0 0 4 6 24 24 20 39 41 57 56 39 28
0 1 2 2 1 0 2 2 1 2 3 1 0 0 0 0 1 0 1 2 2 3 3 3 1 0 0 0 0 1 2 2 3 14 37 26 10 18 12 39 35 28 11
0 0 0 3 2 2 1 2 1 3 2 0 2 0 0 0 1 0 1 1 1 2 4 3 3 2 1 0 0 0 0 0 0 5 17 4 26 7 12 22 21 14 18
0 0 0 0 1 3 2 4 4 2 2 2 2 0 0 0 0 0 0 1 1 1 0 2 2 2 3 3 0 0 0 0 0 0 8 7 6 0 9 6 13 16 18
0 0 0 0 0 2 3 2 3 3 6 5 2 0 0 2 0 0 0 0 1 0 0 0 1 2 2 2 2 1 3 4 0 0 0 0 0 0 0 0 0 8 13
0 0 0 0 0 0 0 0 1 2 3 7 2 1 2 2 0 0 0 0 0 0 0 0 0 0 0 1 3 2 3 3 1 0 0 0 0 0 0 0 0 0 0
0 1 0 0 0 0 0 2 0 0 1 3 2 2 1 2 3 0 0 0 0 0 1 1 1 1 0 0 0 0 0 0 0 0 0 4 3 6 4 3 1 1 0
0 0 0 0 1 0 0 1 4 1 2 2 1 2 1 2 3 3 2 0 0 0 0 0 0 0 0 0 0 0 0 0 0 0 1 4 9 4 3 5 3 4 0
0 0 2 0 0 0 1 0 2 3 3 0 0 1 2 2 2 2 1 2 3 0 0 0 0 0 0 0 0 0 0 0 0 1 3 3 8 6 2 1 6 6 5
0 1 1 0 0 0 0 1 2 2 4 1 1 0 3 1 2 1 0 0 0 1 1 0 0 0 0 0 0 0 0 1 3 6 7 7 9 6 6 5 14 5 3
0 0 0 0 0 0 1 0 0 4 6 4 4 6 3 0 1 0 1 0 0 0 0 0 0 0 0 0 0 0 1 2 7 7 5 4 5 3 3 1 3 6 4
0 0 1 1 0 0 1 3 4 1 6 5 5 4 6 3 1 0 0 0 0 0 0 1 5 5 2 3 3 0 4 6 12 12 6 4 3 3 3 1 0 0 1
0 1 2 2 1 1 2 4 4 3 2 2 4 5 5 4 4 1 1 1 1 2 3 5 8 7 3 4 5 6 6 4 11 6 1 2 3 4 3 2 2 2 0
1 2 2 2 1 1 3 5 4 2 2 0 2 2 2 3 3 4 6 5 7 9 12 9 10 6 3 3 4 3 3 2 2 1 1 1 1 2 2 3 3 0 0
4 4 3 1 1 2 2 2 2 1 1 3 3 3 2 3 3 2 3 4 4 5 7 7 8 6 4 3 2 2 3 2 0 0 0 1 0 0 0 0 0 0 0
1 2 1 3 3 2 2 3 2 1 2 4 4 4 4 4 5 5 3 2 2 1 3 3 3 3 2 0 0 1 1 1 0 0 0 0 0 0 0 0 0 0 0
0 0 3 4 3 1 2 3 1 1 2 3 4 3 3 3 3 3 3 2 2 3 2 1 0 2 1 2 1 1 1 2 1 0 0 1 0 0 0 0 0 0 0

GFSMW_con_mlcape_114.txt.gz
CAPE
0 0 0 0 0 1 0 200 534 881 475 409 394 378 268 49 82 47 3 1 5 5 16 16 72 48 32 76 42 79 57 29 67 36 20 19 16 14 5 5 5 11 16
0 0 0 0 6 52 122 195 445 855 346 334 536 333 58 14 3 9 11 7 2 2 3 8 48 22 24 68 14 58 43 30 37 24 15 15 26 18 16 3 4 8 4
0 0 0 0 1 56 231 277 447 761 545 725 365 389 257 45 51 30 14 8 3 2 3 4 2 2 6 3 0 20 30 16 34 50 5 4 6 11 10 6 4 1 0
0 0 0 0 0 72 237 225 441 537 629 705 380 306 130 12 18 31 44 7 20 15 3 5 2 2 4 1 0 0 26 29 20 24 6 0 0 1 10 6 2 0 0
0 0 0 0 0 81 151 50 269 394 586 637 425 164 9 7 3 45 69 59 17 10 3 2 2 2 1 1 0 0 16 21 45 26 8 8 7 1 0 0 0 0 0
0 8 11 0 0 148 16 5 212 161 100 219 170 40 0 1 6 24 30 22 8 5 2 1 1 2 2 2 0 0 0 14 46 36 0 0 0 3 0 0 0 0 0
35 37 40 32 19 112 1 4 172 54 3 3 5 1 2 0 3 4 9 10 0 0 1 1 1 1 2 2 0 0 1 14 59 29 0 0 0 0 0 0 0 0 10
154 75 59 179 75 0 3 4 56 0 2 3 1 5 2 4 8 17 17 2 0 0 2 2 2 2 2 2 0 0 0 4 15 19 0 0 0 11 0 5 45 31 41
252 183 73 74 64 3 0 4 3 0 1 12 8 4 3 6 6 22 12 0 3 1 2 2 2 2 2 2 2 1 2 3 2 4 14 22 39 83 59 62 56 39 40
102 42 19 4 3 2 4 5 3 4 0 5 4 3 1 9 13 22 3 0 2 2 3 3 3 3 2 2 3 3 2 6 3 0 0 0 9 33 59 28 84 86 49
44 1 3 6 4 2 2 5 3 4 3 0 4 3 3 7 10 9 5 2 2 2 2 3 2 2 2 1 1 0 0 0 0 0 0 22 4 14 33 57 62 58 27
9 0 2 1 0 3 3 3 2 3 3 7 5 0 5 14 6 3 2 2 1 3 2 3 3 2 1 0 0 0 0 0 0 0 1 2 0 33 22 64 32 45 58
0 0 0 0 0 0 3 2 2 3 4 2 1 0 4 4 7 9 4 3 1 3 2 1 1 2 2 0 0 0 0 0 0 0 0 0 14 30 40 47 33 24 13
0 0 0 0 0 0 0 2 2 3 4 2 3 7 9 14 6 18 4 3 2 1 2 2 2 2 0 0 0 0 0 0 0 0 0 0 1 12 22 1 11 3 3
5 0 0 1 2 0 0 0 2 2 1 9 7 12 19 16 1 5 7 9 3 3 1 3 3 2 2 3 2 0 0 0 0 0 0 0 0 1 0 0 0 0 0
0 0 0 0 0 3 0 0 0 2 2 0 9 15 3 1 7 7 2 2 5 8 10 3 0 0 1 0 0 2 2 0 1 0 0 0 0 0 0 0 0 0 0
0 0 0 0 0 0 5 3 0 0 1 1 1 7 1 1 1 6 2 2 2 4 4 3 1 2 0 0 0 0 1 1 0 0 0 0 2 1 6 11 10 9 1
0 0 0 0 0 0 0 1 0 2 3 3 2 0 1 2 2 3 3 5 5 2 2 2 3 2 1 0 0 0 0 0 1 1 2 1 5 6 5 8 13 18 12
0 0 0 0 0 0 0 0 0 0 0 2 6 5 3 1 0 3 2 4 6 4 3 1 1 1 2 0 0 0 0 0 1 2 4 4 12 11 5 6 18 16 7
0 0 0 0 0 0 0 1 3 2 0 3 5 4 4 1 1 0 9 2 5 2 0 0 0 1 0 0 0 0 0 0 4 9 8 8 8 7 3 4 8 16 6
0 0 0 0 0 0 0 0 1 1 2 2 3 4 5 5 4 1 0 0 0 0 0 0 1 1 3 3 2 0 1 2 9 13 12 5 6 5 4 3 2 6 1
0 0 0 0 0 0 0 0 1 0 1 2 2 4 3 5 6 6 2 0 0 1 2 2 5 9 7 3 1 1 3 6 13 12 4 2 2 4 4 2 2 2 1
0 0 0 0 0 0 0 0 1 0 1 2 4 4 4 6 3 3 3 4 4 5 8 6 10 13 7 5 2 3 5 5 4 2 1 2 2 1 0 1 1 0 1
0 0 0 0 0 0 0 0 0 0 0 3 4 5 7 8 5 3 4 3 3 4 6 6 7 8 7 5 3 3 2 2 1 0 0 1 1 1 1 1 0 0 0
0 0 0 0 0 0 0 0 0 0 1 3 3 4 5 6 6 6 5 3 3 1 2 6 4 4 2 1 0 0 0 0 0 0 0 0 0 0 0 0 0 0 0
0 0 0 0 0 0 0 0 0 0 1 3 3 3 2 3 3 4 4 2 3 4 3 1 0 3 2 1 2 1 1 1 1 0 0 1 1 1 0 0 0 0 0

GFSMW_con_mlcape_117.txt.gz
CAPE
0 0 0 0 0 0 0 0 147 1066 1617 1484 1505 1018 885 476 478 508 429 437 357 165 270 104 142 85 99 52 22 27 19 36 108 63 42 37 12 24 3 4 5 13 9
0 0 0 0 0 0 72 103 336 910 1437 1243 935 912 929 813 803 472 270 168 90 169 106 77 31 9 43 45 12 28 3 24 137 32 28 32 23 17 5 2 3 12 5
0 0 0 0 0 0 103 250 393 692 1261 712 738 945 876 581 321 148 192 172 31 10 2 7 17 16 29 6 15 26 3 13 40 50 1 13 16 18 15 2 4 8 8
0 0 0 0 0 0 100 356 415 622 1203 655 865 1083 737 409 383 281 196 121 89 25 3 2 5 3 6 22 13 33 23 28 41 45 32 21 1 0 15 8 4 9 5
0 0 0 0 0 0 119 546 586 701 1065 1025 951 990 1024 641 376 208 236 192 77 40 6 3 2 4 4 5 12 0 41 31 51 49 35 43 37 0 0 3 2 1 2
0 0 6 85 0 156 547 683 611 855 1000 1044 1110 993 965 624 387 257 206 193 106 141 51 5 3 1 1 2 1 2 31 37 29 59 86 52 47 8 27 6 4 0 0
27 58 95 197 25 255 558 118 296 682 731 926 1037 1017 810 476 336 264 181 146 99 63 37 7 4 2 1 1 2 1 10 22 6 22 61 120 91 89 54 15 4 0 2
287 227 342 481 365 423 335 1 117 364 240 698 932 712 566 365 155 73 28 26 34 11 5 5 2 3 2 2 2 2 2 8 4 20 62 118 122 75 30 0 39 0 13
443 418 471 415 293 79 1 0 52 120 8 130 607 418 299 118 15 2 53 94 26 5 8 2 1 1 1 2 2 1 4 2 8 14 33 36 124 114 34 12 74 0 12
411 307 226 84 11 0 2 0 5 11 2 171 350 247 169 94 10 8 91 26 3 1 2 1 1 1 1 2 2 1 3 2 6 1 37 39 99 102 120 130 88 82 44
399 107 1 2 2 4 4 2 3 4 1 135 167 151 72 23 9 38 61 8 0 2 4 2 2 1 1 2 2 2 2 1 3 21 39 58 44 84 89 106 42 18 35
106 9 0 0 0 0 4 4 2 7 4 0 0 11 2 4 15 34 27 5 1 2 2 1 3 2 1 1 2 2 5 2 5 17 30 54 61 101 68 22 8 6 4
31 0 0 0 1 0 0 0 4 5 0 2 2 1 4 6 17 10 6 1 0 2 2 2 2 1 2 2 2 2 2 4 1 1 43 22 30 20 14 1 0 32 13
40 2 0 0 0 1 0 0 0 1 2 6 7 3 6 6 6 12 13 6 1 2 2 1 2 2 2 2 0 0 0 5 31 44 36 21 12 0 0 0 21 43 40
11 2 0 0 0 0 3 0 0 0 1 1 5 7 16 11 15 14 13 18 3 2 2 2 1 0 1 3 0 1 0 4 1 0 0 0 0 0 4 19 16 18 14
3 0 0 0 0 0 1 3 0 0 0 0 0 28 19 33 16 14 23 9 12 3 2 2 1 2 0 0 0 0 0 0 0 0 0 0 0 0 0 0 0 0 4
2 0 0 0 0 0 1 2 4 2 0 0 0 1 15 15 10 25 22 21 15 24 9 3 2 3 1 0 0 0 0 0 0 0 0 0 0 0 0 3 4 6 6
0 0 0 0 0 0 0 0 2 5 1 0 0 3 4 1 0 2 24 20 19 17 10 17 5 2 2 0 0 0 1 1 0 0 0 0 0 1 0 5 6 14 13
0 0 0 0 0 0 0 0 0 4 5 0 1 1 5 4 1 0 7 14 20 15 12 10 4 5 0 0 0 0 0 0 0 2 3 2 3 8 7 5 14 22 11
0 0 0 0 0 0 0 0 0 1 7 3 1 3 4 3 4 2 0 0 18 19 17 4 0 0 0 0 0 0 0 0 1 4 5 4 5 5 5 5 11 20 16
0 0 0 0 0 0 0 0 0 0 1 3 3 2 3 5 6 5 4 0 0 0 0 0 1 1 2 2 2 1 1 2 6 9 10 5 5 4 4 4 5 13 3
0 0 0 0 0 0 0 0 0 0 0 0 4 2 5 5 6 7 4 3 0 0 2 2 5 9 7 4 2 2 2 7 10 13 5 3 3 5 5 3 2 2 2
0 0 0 0 0 0 0 0 0 0 0 1 4 4 5 4 6 5 4 2 5 4 6 4 7 12 8 6 3 3 4 5 7 3 2 2 2 1 1 1 1 0 0
0 0 0 0 0 0 0 0 0 0 0 2 3 3 4 5 4 5 4 5 3 4 8 9 10 3 6 6 3 3 3 3 1 0 0 1 1 0 0 0 0 0 0
0 0 0 0 0 0 0 0 0 1 1 2 1 1 2 4 4 5 5 4 2 3 4 7 4 1 1 3 2 1 1 2 1 1 1 1 1 0 0 0 0 0 0
0 0 0 0 0 0 0 1 2 2 1 1 1 0 1 1 2 3 4 2 4 2 1 0 1 3 2 2 2 1 1 1 1 0 0 0 1 1 1 0 0 0 0

GFSMW_con_mlcape_120.txt.gz
CAPE
0 0 0 0 0 0 0 0 708 1226 1923 2183 2115 1735 1527 1241 1168 1049 848 660 869 697 562 344 214 178 155 32 2 6 13 2 1 16 5 49 30 9 0 4 0 0 0
0 0 0 0 0 0 0 0 1 1111 1722 2110 2060 1650 1512 914 627 507 484 442 604 616 419 380 188 111 160 39 1 1 5 1 3 13 20 37 28 26 6 6 13 1 0
0 0 0 0 0 0 0 19 120 317 1480 1998 1806 1330 967 772 490 563 459 330 260 424 188 334 91 62 46 6 1 0 12 6 4 3 0 15 6 7 26 2 0 14 1
0 0 0 0 0 0 0 99 167 325 1166 1716 1326 1110 855 904 749 532 311 292 139 83 179 148 38 19 3 3 2 1 0 1 0 10 8 26 7 0 4 5 5 17 1
0 0 0 0 0 0 0 19 283 421 1103 1345 1012 899 953 839 511 474 238 188 202 89 0 6 17 18 5 5 6 2 2 0 0 2 4 32 51 0 0 0 4 15 2
1 1 0 0 0 130 147 382 573 555 1156 1150 1024 942 1098 957 644 634 519 290 97 167 64 1 3 4 4 4 1 14 1 2 0 13 9 18 41 8 0 0 0 0 0
25 21 45 140 55 574 845 976 840 762 1247 1258 1053 1089 1201 1304 861 526 448 414 208 191 68 2 4 2 2 1 6 4 6 13 1 17 26 29 76 48 24 6 0 0 0
223 363 503 487 484 776 824 275 99 427 1141 1221 1104 1181 814 1190 776 563 369 326 124 107 283 12 3 2 0 2 1 2 3 18 4 19 40 45 74 91 52 57 15 0 0
479 586 574 410 239 179 86 18 0 78 404 581 768 932 905 745 541 365 243 208 187 214 14 1 3 2 1 7 2 1 6 2 8 10 22 11 38 91 114 94 52 12 11
527 398 195 47 2 0 0 1 2 34 113 119 423 629 511 432 246 100 97 85 159 16 1 1 1 3 2 1 1 2 1 2 8 3 1 10 22 42 100 101 126 27 50
332 75 5 0 0 0 0 5 2 4 17 8 115 378 267 190 114 54 116 36 15 2 1 0 2 0 0 1 1 2 2 5 16 1 4 2 16 1 65 96 132 106 51
114 1 2 2 0 0 0 0 1 4 11 0 10 226 187 83 17 26 141 60 1 1 1 1 1 1 1 0 0 1 1 6 9 1 1 1 7 11 30 72 88 96 68
10 0 0 1 0 1 1 0 0 0 1 2 0 3 0 0 10 22 120 25 0 0 0 1 1 1 1 1 1 0 1 9 5 5 2 0 0 8 20 25 26 34 37
5 0 0 0 0 1 1 1 1 0 0 0 1 0 0 0 0 33 16 0 1 0 0 1 1 1 1 2 2 5 6 9 14 7 2 24 21 25 27 13 26 2 3
26 0 0 0 0 0 1 1 1 0 0 0 0 0 2 1 0 14 33 2 0 0 0 2 1 1 1 2 2 2 4 5 15 5 1 14 25 33 29 6 16 0 0
0 1 0 0 0 0 0 1 1 2 0 0 0 1 0 17 19 23 33 10 3 0 1 2 0 1 1 0 0 0 0 0 0 0 0 0 0 0 0 8 0 0 4
0 0 0 0 0 0 0 0 2 1 2 0 0 0 0 0 0 23 33 21 9 2 1 1 2 1 0 0 0 0 0 0 0 0 0 0 0 0 0 0 0 0 0
0 0 0 0 0 0 0 0 0 3 2 5 0 0 0 0 0 0 2 29 16 9 3 1 1 1 1 0 0 0 0 0 0 0 0 0 0 0 0 0 0 7 8
0 0 0 0 0 0 0 0 0 1 4 6 5 4 0 0 3 1 0 0 35 20 15 17 1 0 0 0 0 0 0 0 0 0 0 0 0 2 1 0 4 15 15
0 0 0 0 0 0 0 0 0 0 2 3 6 6 6 0 0 5 3 2 0 21 10 0 0 0 0 0 0 0 0 0 1 4 4 2 3 7 9 10 15 16 14
0 0 0 0 0 0 0 0 0 0 0 0 2 3 7 5 2 4 5 2 1 0 0 0 4 3 4 2 0 0 0 0 5 7 9 5 5 6 5 4 4 10 1
0 0 0 0 0 0 0 0 0 0 0 0 1 1 2 3 3 1 4 2 3 2 1 4 9 11 6 2 1 1 2 7 11 13 8 6 6 7 4 4 5 3 0
0 0 0 0 0 0 0 0 0 0 0 1 2 2 2 2 1 1 0 3 2 6 10 8 13 11 11 7 6 9 6 7 11 4 3 2 3 2 3 2 3 1 0
0 0 0 0 0 0 0 0 0 0 0 1 1 2 5 4 2 2 2 2 3 2 1 4 7 7 5 6 5 5 5 6 3 0 1 2 2 1 1 1 1 2 1
0 0 0 0 0 0 1 2 0 0 0 1 1 1 2 3 3 4 2 3 1 2 0 0 1 0 0 4 3 3 4 3 2 2 1 1 1 1 0 0 0 0 0
1 0 0 0 0 0 2 1 0 0 0 0 1 1 2 2 1 1 2 3 2 2 2 1 1 1 1 3 2 2 1 1 1 1 0 0 0 0 0 0 0 0 0

GFSMW_con_mlcape_123.txt.gz
CAPE
0 0 0 0 0 0 0 293 1415 1838 2171 1945 1780 1688 1555 1193 1236 1259 1020 988 1139 889 631 445 267 171 94 0 0 0 0 0 3 20 27 12 0 0 0 0 0 0 0
0 0 0 0 0 0 0 0 884 1781 2018 2044 1844 1761 1505 1248 1138 1295 1013 756 993 849 586 407 279 199 119 13 0 0 0 0 1 0 7 8 1 0 0 0 0 0 0
0 0 0 0 0 0 0 1 591 1433 1811 2122 1924 1529 1177 1128 1015 1007 746 627 476 531 574 404 238 185 172 37 4 0 0 0 0 0 0 3 3 1 0 0 0 0 0
0 0 0 0 0 0 0 0 199 1137 1543 1968 1918 1689 1466 1222 962 742 606 462 398 468 405 325 240 137 153 70 25 0 0 0 0 0 1 0 0 0 0 0 0 6 1
0 0 0 0 0 0 3 0 0 605 1314 1845 1797 1573 1362 1097 786 642 513 378 274 205 234 151 202 113 84 28 31 5 1 0 0 0 1 0 0 0 1 0 0 3 0
0 0 0 0 2 0 0 18 25 135 1140 1496 1567 1545 1383 1048 699 558 389 266 181 137 22 47 118 35 8 2 2 12 1 0 0 0 3 0 0 0 0 0 0 0 0
0 95 128 193 564 341 201 311 390 811 941 1060 1230 1307 1211 909 642 436 374 269 224 238 31 8 14 8 10 4 2 3 2 1 0 0 0 1 1 0 1 7 0 0 0
559 503 428 535 487 567 499 470 430 243 1030 969 1087 1133 1063 876 793 646 432 362 258 155 54 19 1 0 1 4 6 3 5 1 2 0 2 1 2 2 16 2 0 0 0
585 435 200 108 48 32 34 24 17 0 462 1044 1151 1073 982 950 1043 716 392 398 343 198 96 73 34 0 0 2 4 5 5 4 1 1 0 1 0 20 33 11 1 0 0
387 185 73 24 1 0 0 0 0 0 12 277 636 848 918 904 582 347 184 249 269 143 81 96 76 18 1 3 1 4 19 24 19 2 1 3 7 30 38 23 19 3 0
252 86 4 0 0 0 0 0 0 0 2 0 27 403 526 552 294 162 70 47 50 81 56 9 2 0 0 5 5 3 2 3 11 2 2 2 6 33 39 25 39 15 5
21 1 0 0 0 0 0 0 0 0 0 2 8 62 370 281 194 69 39 17 8 13 2 0 1 1 1 0 1 4 1 1 8 2 7 10 10 16 28 14 42 28 9
0 0 0 0 0 0 0 0 0 1 0 0 5 5 22 160 62 11 1 19 9 0 0 0 0 0 0 1 1 1 1 1 2 5 3 8 1 17 3 22 22 36 1
0 0 0 0 1 0 1 2 1 2 0 0 0 0 0 0 1 1 6 24 9 0 0 0 0 0 1 2 2 4 1 6 13 29 34 9 10 0 0 7 20 0 2
0 0 0 0 0 0 0 0 2 3 2 0 0 0 0 0 0 1 2 6 2 0 0 0 0 0 0 0 2 3 3 5 7 21 3 1 0 0 0 5 7 10 5
0 0 0 0 0 0 0 2 0 0 1 4 1 0 0 0 0 2 14 17 1 0 0 0 0 0 0 0 0 1 1 3 3 2 0 0 0 0 0 0 0 0 2
0 0 0 0 0 0 0 0 0 0 0 1 3 2 0 0 0 0 6 43 13 0 0 0 0 0 0 0 0 0 0 0 0 0 0 0 0 0 0 0 0 0 0
0 0 0 0 0 0 0 0 0 0 2 5 3 3 4 0 0 0 0 0 11 4 0 0 0 0 0 0 0 0 0 0 0 0 0 0 0 0 0 0 2 7 7
0 0 0 0 0 0 0 0 0 0 0 2 3 5 6 4 0 0 0 1 0 5 2 0 0 0 0 0 0 0 0 0 0 0 1 0 0 1 1 0 0 11 18
0 0 0 0 0 0 0 0 0 0 0 2 3 2 3 6 5 0 0 3 1 0 0 0 0 0 0 0 0 0 0 0 0 4 2 1 0 4 4 0 0 0 18
0 0 0 0 0 0 0 0 0 0 0 1 1 1 1 5 5 5 1 2 1 1 0 1 6 7 4 1 0 0 0 0 1 2 7 9 5 6 5 7 8 15 4
0 0 0 0 0 0 0 0 0 0 0 0 1 2 2 2 3 4 3 1 2 4 7 10 9 16 9 4 4 2 1 7 2 14 12 7 5 3 2 3 10 4 1
0 0 0 0 0 0 0 0 1 0 1 1 2 2 2 3 2 2 2 1 2 1 3 9 11 12 13 8 6 9 8 8 17 7 6 6 7 7 7 7 6 2 3
0 0 0 0 1 0 0 1 0 0 0 2 2 2 3 4 2 1 6 0 0 3 0 0 0 5 6 7 4 5 6 6 4 1 1 3 3 2 1 2 2 2 1
0 0 0 0 0 1 1 1 0 0 0 1 1 2 2 3 3 3 3 4 4 1 0 2 1 0 3 4 4 2 2 2 3 2 0 1 1 1 1 0 0 0 1
1 1 0 1 1 0 0 0 0 0 0 1 0 1 2 2 1 1 3 2 2 3 2 2 1 1 2 2 2 2 3 2 0 2 2 1 0 1 1 0 0 0 0

GFSMW_con_mlcape_126.txt.gz
CAPE
0 0 0 0 0 0 0 0 654 1540 2146 1999 1795 1609 1573 1340 1363 1316 1364 1239 973 732 539 329 204 150 114 9 0 0 0 0 9 28 4 0 0 0 0 0 0 0 0
0 0 0 0 0 0 0 0 327 1039 2016 2041 1909 1725 1596 1353 1437 1260 1261 1273 1132 876 641 467 227 106 79 0 1 0 0 0 4 5 11 3 0 0 0 0 0 0 0
0 0 0 0 0 0 0 0 88 1051 1914 2078 1834 1558 1137 1016 1173 1278 1276 1085 1030 1009 832 515 334 265 179 65 0 0 0 0 0 0 3 0 1 0 0 0 0 0 0
0 0 0 0 0 0 0 0 105 1148 2010 2032 1774 1725 1545 1353 1390 1192 1230 1024 809 778 734 573 406 318 224 65 1 0 0 0 0 0 0 0 0 0 0 0 0 0 0
0 0 0 0 0 0 0 0 306 1349 1983 2044 1830 1693 1571 1307 1153 916 928 884 701 666 528 498 385 316 263 149 24 2 1 0 0 0 0 0 0 0 0 0 0 0 0
0 0 0 0 0 0 0 37 621 1330 1835 2045 1889 1696 1471 1176 1048 921 944 722 564 468 443 437 365 235 204 203 72 12 2 3 0 0 0 0 0 0 0 0 0 0 0
0 0 0 0 0 0 12 88 698 1186 1719 1870 1863 1704 1405 1196 1136 995 878 632 356 266 282 311 280 233 149 119 67 47 5 5 2 0 0 1 0 0 0 0 0 0 0
149 112 114 269 297 211 167 301 528 972 1343 1464 1537 1543 1275 1170 1039 899 627 374 326 227 179 145 100 61 66 64 41 39 14 6 8 0 0 0 0 0 0 0 0 0 2
374 320 234 84 52 53 53 88 206 658 1030 1151 1160 1047 957 1006 891 719 489 318 228 232 192 104 28 14 6 20 17 14 8 7 6 7 0 1 0 0 0 0 0 0 4
200 121 79 34 0 0 0 0 5 48 210 495 901 1045 926 725 839 697 631 478 368 260 275 62 11 1 2 2 3 8 7 12 7 19 3 1 1 1 0 0 0 0 10
4 0 0 0 0 0 0 0 0 0 8 54 155 537 651 731 754 656 625 552 361 294 239 90 20 9 7 0 4 11 13 19 18 27 19 3 1 1 2 1 1 0 0
3 2 2 1 0 0 0 0 0 0 0 1 0 28 310 229 170 212 82 180 244 185 93 17 20 9 5 0 3 11 14 7 8 24 27 2 1 1 1 2 6 0 0
1 0 0 2 0 0 2 1 0 0 0 0 0 0 23 245 85 28 51 7 26 11 0 0 0 0 0 0 0 1 1 3 3 5 2 6 4 2 2 9 3 2 0
0 0 0 1 1 1 2 1 1 1 2 1 0 0 0 2 11 1 1 0 0 0 0 0 0 0 0 0 0 0 1 1 1 2 3 7 2 2 1 1 0 11 0
7 1 0 0 0 0 0 0 0 1 1 2 2 1 1 2 0 1 0 5 4 0 0 0 0 0 0 0 0 1 1 1 2 2 6 16 22 25 7 0 0 1 0
4 0 1 0 0 0 0 0 0 0 0 2 1 3 2 1 1 0 0 6 1 0 0 0 0 0 0 0 0 0 2 1 0 0 0 2 7 0 0 0 0 0 0
0 0 0 0 0 0 0 0 1 1 0 1 3 2 2 3 1 1 1 6 3 0 0 0 0 0 0 0 0 0 0 0 0 0 0 0 0 1 0 0 0 0 0
0 0 0 0 0 0 0 0 0 0 0 0 0 2 1 2 3 1 1 1 0 0 0 0 0 0 0 0 0 0 0 0 0 0 0 0 1 1 0 0 1 3 2
0 0 0 0 0 0 0 0 0 0 0 0 0 1 2 1 2 3 5 3 2 1 1 0 0 0 0 0 0 0 0 0 0 0 1 0 0 3 0 0 0 8 15
0 0 0 0 0 0 0 0 0 0 1 3 2 1 1 2 4 3 1 5 4 1 2 0 0 0 0 0 0 0 0 0 0 0 1 2 1 3 0 0 0 0 15
0 0 0 0 0 0 0 0 0 1 2 2 2 1 0 1 2 4 5 4 3 3 1 6 8 7 8 1 0 0 0 0 0 0 2 11 3 3 5 5 4 4 9
0 0 0 0 0 0 0 1 1 1 1 1 2 1 1 3 1 1 2 4 3 3 6 6 10 14 10 8 8 2 0 4 0 7 17 11 6 6 5 5 15 10 4
0 0 0 1 0 0 1 3 1 0 1 0 1 2 2 3 3 1 2 2 2 3 2 2 9 7 13 7 10 11 6 7 12 8 7 7 8 9 10 10 7 2 3
0 0 0 0 1 0 1 1 0 0 0 2 1 2 3 4 4 4 4 4 1 3 3 3 1 0 3 3 4 4 6 8 7 2 4 5 5 4 2 2 2 2 3
0 1 1 1 1 1 1 0 0 0 0 1 1 2 2 3 3 3 4 5 4 2 2 3 1 2 6 7 3 1 1 2 3 2 2 4 4 3 2 2 2 1 0
1 1 0 0 0 0 1 0 0 0 0 0 1 1 2 1 0 1 2 2 1 2 2 2 2 1 2 2 3 3 2 2 2 2 1 2 1 1 1 1 1 1 1

GFSMW_con_mlcape_132.txt.gz
CAPE
0 0 0 0 0 0 0 0 198 989 1751 1717 1492 1128 772 676 754 743 729 593 572 464 349 208 109 83 91 41 0 0 0 0 0 2 0 0 0 4 5 0 11 0 1
0 0 0 0 0 0 0 0 42 1037 1702 1982 1787 1635 1384 1066 947 847 754 707 703 610 456 369 237 170 111 100 9 2 0 0 0 0 0 0 0 0 0 0 0 2 1
0 0 0 0 0 0 0 0 0 451 1482 1945 2018 1808 1676 1391 1086 987 955 895 829 601 554 462 326 245 156 158 52 7 0 0 0 0 0 1 2 0 0 0 0 0 0
0 0 0 0 0 0 0 0 0 1 767 1994 2010 1797 1721 1596 1380 1283 1208 1083 886 693 705 540 423 386 270 188 67 9 3 0 0 0 1 2 0 0 0 1 1 1 0
0 0 0 0 0 0 0 0 0 0 208 1724 1868 1763 1662 1621 1532 1433 1318 1137 1065 902 845 673 655 635 435 227 94 36 9 0 0 7 9 1 0 0 0 0 1 1 1
0 0 0 0 0 0 0 0 0 0 146 1592 1888 1833 1718 1572 1510 1508 1372 1157 1097 1069 1118 940 764 598 460 335 153 83 34 13 5 0 6 12 2 0 0 0 0 1 1
274 165 72 0 0 0 0 0 0 0 99 1155 2023 1970 1768 1595 1414 1523 1366 1180 1187 1164 1189 962 711 583 474 346 192 114 32 15 2 0 0 1 1 5 3 2 0 0 0
177 153 178 152 91 4 0 64 61 11 330 1438 2104 2029 1831 1622 1520 1457 1365 1131 1040 1113 1127 943 703 577 454 407 291 218 137 44 16 4 0 0 5 2 4 1 0 0 0
37 4 3 2 0 78 372 759 662 1103 1656 2020 2059 1918 1791 1545 1394 1295 1107 1093 1018 973 908 830 703 521 421 407 329 277 156 41 24 10 3 7 14 9 9 1 0 0 0
2 2 3 4 4 2 5 56 340 698 976 1454 1584 1574 1584 1361 1075 914 829 749 812 760 682 683 605 427 384 347 257 212 142 71 22 18 6 17 12 11 10 3 0 0 0
3 2 0 4 4 4 3 5 0 17 11 161 592 749 834 727 541 533 485 552 620 611 589 545 529 318 264 177 177 150 102 74 23 14 17 7 21 6 7 3 2 0 0
2 4 0 7 4 5 6 6 2 5 2 4 0 22 195 139 134 361 405 306 389 370 349 202 265 206 112 91 132 53 18 8 9 19 15 32 23 11 6 2 1 1 0
1 2 0 2 3 5 5 5 7 6 6 2 2 1 0 15 112 324 296 233 237 232 95 99 77 66 78 14 0 0 0 11 18 11 14 6 6 2 2 4 7 1 1
1 1 0 1 2 3 4 5 4 4 5 3 1 3 3 3 2 13 107 174 141 132 106 58 38 65 4 6 0 0 0 5 10 7 8 21 19 22 10 6 5 4 1
3 2 2 2 0 0 2 2 2 2 3 4 2 4 3 3 3 1 0 33 57 54 8 0 4 23 15 0 1 0 0 3 2 0 0 0 0 0 0 0 2 10 8
3 3 3 3 2 1 1 2 2 2 2 3 2 3 2 0 2 4 2 0 0 0 0 4 3 0 0 0 0 0 0 0 0 0 0 0 0 0 0 0 0 0 10
1 2 3 2 2 1 1 1 1 1 0 0 1 3 2 2 2 3 1 2 1 0 1 0 0 0 0 0 0 0 0 0 0 0 0 0 0 0 0 0 0 0 0
0 0 1 0 0 1 0 0 0 1 0 1 0 0 2 2 0 0 4 3 3 2 1 1 0 0 0 0 0 0 0 0 0 0 0 0 0 0 0 0 0 1 1
0 0 0 0 0 1 1 0 1 1 1 1 1 3 2 1 0 0 0 2 4 4 2 1 0 0 0 0 0 0 0 0 0 0 0 0 0 0 0 1 0 2 5
0 0 0 0 0 0 0 1 1 2 2 2 4 3 4 4 4 3 1 2 4 5 4 3 7 6 2 5 0 0 0 0 0 1 1 2 1 6 3 0 3 1 2
0 0 0 0 1 0 1 2 1 3 2 1 1 2 2 4 5 5 2 2 3 3 3 2 3 7 6 5 3 0 0 0 0 0 1 10 8 6 1 0 0 3 7
0 0 0 0 0 0 1 2 3 0 0 0 0 2 2 3 4 6 2 1 4 4 3 2 3 3 3 5 6 4 2 2 1 2 11 10 2 3 2 2 7 8 4
0 0 0 0 0 0 1 2 1 0 0 0 0 0 2 3 3 4 5 3 4 4 4 4 3 4 4 2 3 3 3 5 6 10 8 10 11 15 14 12 3 1 2
1 0 0 0 0 0 0 1 1 0 0 0 0 0 1 1 2 2 4 7 5 5 5 4 5 5 5 1 2 1 3 2 4 0 3 5 5 6 3 0 1 3 3
0 0 0 0 0 0 1 1 0 0 0 0 0 0 0 0 0 0 1 1 1 2 5 6 5 7 10 6 3 1 1 2 3 2 2 3 3 3 3 5 5 5 3
0 0 0 0 0 0 0 1 0 0 0 1 0 0 0 0 0 0 0 0 1 1 1 1 0 0 2 1 3 3 4 1 0 0 1 2 3 3 3 3 3 3 4

GFSMW_con_mlcape_135.txt.gz
CAPE
0 0 0 0 0 0 0 0 0 0 1065 1299 1189 1034 949 939 854 771 752 631 517 415 323 179 77 33 15 0 41 55 34 1 3 0 2 2 7 26 56 43 2 1 6
0 0 0 0 0 0 0 0 0 0 801 1132 1245 1244 1226 1108 958 880 774 605 558 470 413 368 145 95 54 31 32 13 27 3 1 0 2 1 1 1 5 20 6 0 2
0 0 0 0 0 0 0 0 0 0 265 1315 1585 1600 1468 1359 1125 821 679 752 698 578 501 456 291 169 150 43 35 101 77 19 1 2 0 3 1 4 2 3 6 5 1
0 0 0 4 0 0 0 0 0 0 23 1543 1738 1554 1632 1517 1343 1137 1015 896 742 700 581 506 421 281 210 130 55 110 144 54 1 4 2 0 0 1 0 3 3 4 4
6 0 82 12 0 0 0 0 0 0 0 1525 1817 1873 1929 1867 1856 1522 1271 1000 745 688 609 571 458 411 285 222 92 68 152 80 61 0 0 1 0 0 0 0 0 2 1
10 32 10 210 45 0 0 0 0 0 0 1070 1885 2024 1936 2067 2030 1711 1449 1144 930 783 599 598 498 546 477 381 223 178 174 157 124 56 24 4 1 0 0 1 2 0 1
12 23 4 3 55 287 0 0 0 0 0 400 1471 2140 2145 2149 2052 1821 1604 1256 1202 879 763 683 602 749 770 558 301 181 181 290 244 148 114 51 70 23 1 7 3 2 4
4 8 3 6 4 7 253 0 0 0 0 378 1332 1951 2250 2117 2031 1853 1734 1465 1263 1131 1029 733 806 841 770 538 363 262 205 240 244 165 91 102 113 86 32 8 18 0 0
5 4 3 3 5 5 3 397 315 29 8 741 1653 1935 2215 2065 2022 1901 1884 1515 1270 1151 1044 926 891 806 670 616 494 293 215 87 58 39 24 14 28 97 116 43 15 25 1
4 2 4 3 3 4 5 4 36 465 876 1623 2257 2339 2242 1979 1884 1805 1762 1495 1257 1000 1004 802 693 732 668 625 397 274 215 146 99 63 46 22 12 6 23 37 21 26 12
3 2 2 1 2 2 4 4 5 7 68 199 1104 1951 1706 1668 1643 1620 1563 1444 1047 770 670 554 577 588 569 463 374 290 185 193 123 78 29 10 12 6 19 10 18 14 8
3 1 3 0 2 3 3 4 5 9 8 6 3 109 341 566 854 799 611 667 670 404 360 329 396 516 509 427 337 239 163 174 113 88 43 27 15 14 15 20 15 7 1
3 2 2 0 1 2 3 3 4 5 7 1 6 6 0 1 0 120 422 345 243 182 146 213 159 231 272 236 192 136 75 70 50 23 7 15 14 15 8 15 13 2 2
2 3 2 1 1 2 2 3 4 5 6 2 0 7 1 1 3 2 1 65 107 26 30 126 141 108 122 123 96 76 32 0 1 1 4 23 18 16 14 10 4 8 12
2 2 2 1 1 1 2 1 3 4 5 4 4 7 5 4 4 3 2 0 20 66 95 104 95 78 39 41 33 8 4 1 1 0 2 9 5 5 11 16 8 7 2
3 2 2 1 1 2 1 1 2 2 3 2 5 5 5 3 4 3 3 1 0 0 33 25 63 23 18 7 2 17 3 0 0 0 0 1 0 0 0 0 0 0 2
1 2 2 2 2 2 1 2 1 1 1 3 3 4 3 1 3 4 3 3 2 3 0 2 7 7 1 0 0 0 0 0 0 1 0 0 0 0 0 0 0 0 0
0 1 2 2 1 1 1 0 0 0 1 2 3 3 5 5 3 4 6 4 5 3 2 1 0 1 0 0 0 0 0 0 0 0 0 0 0 0 0 0 0 0 0
1 1 2 2 1 0 0 0 0 0 1 4 5 4 6 6 6 1 2 5 6 5 4 9 4 3 3 10 1 0 0 0 0 0 0 0 0 0 0 0 0 0 1
0 0 0 0 0 0 0 0 0 0 3 2 3 3 4 6 7 5 5 6 5 7 5 7 8 5 5 6 4 2 0 0 0 0 0 1 0 0 2 0 0 0 1
0 0 0 1 0 0 0 0 0 2 0 0 0 1 3 4 5 5 5 4 5 4 6 5 6 4 4 5 5 1 3 0 0 0 1 4 7 7 7 3 1 1 4
0 0 0 0 0 0 0 0 3 0 0 0 0 1 2 3 4 5 4 4 5 3 6 5 4 6 3 7 6 6 1 2 1 3 9 10 8 6 1 2 6 5 2
0 0 0 0 0 0 0 2 1 0 0 0 1 0 0 0 1 5 4 4 5 4 8 8 6 6 4 2 4 8 2 2 5 7 7 7 7 5 5 6 2 2 3
0 0 0 0 0 0 0 0 0 0 0 0 0 0 1 0 1 1 2 4 4 5 5 7 7 7 5 3 3 3 2 0 1 2 3 4 4 3 1 0 1 2 3
1 0 0 0 1 0 0 0 0 0 0 0 0 0 0 0 0 1 2 1 0 1 3 2 2 4 7 4 2 4 2 3 1 1 1 1 1 2 3 3 2 3 2
1 0 0 1 1 0 1 1 0 0 0 1 1 1 1 1 0 0 0 0 1 1 1 2 0 0 2 2 2 4 4 1 0 1 1 1 2 2 2 3 3 2 2